Simultaneous Nadir Overpasses (SNOs) Predictions

Prediction of SNOs between GOES-16 and FY3D Satellite Orbit:

Table of predicted SNOs for the next 14.0 days since TLE Epoch: 11/9/2024
Index Date Time (GOES-16) GOES-16 Lat,Lon FY3D Lat,Lon Distance(km) Time Diff (sec)
1 11/10/2024 07:54:21 0.00, -75.21 0.42, -77.18 224.67 80
2 11/11/2024 07:33:00 0.00, -75.22 -0.60, -72.65 293.23 80
3 11/12/2024 19:54:59 -0.00, -75.23 -0.64, -77.92 306.72 80
4 11/13/2024 19:38:58 -0.00, -75.25 0.40, -73.39 211.71 80
5 11/15/2024 08:00:50 0.00, -75.26 0.79, -78.63 385.49 80
6 11/16/2024 07:39:29 0.00, -75.27 -0.26, -74.10 132.98 80
7 11/17/2024 20:01:28 -0.00, -75.29 -0.93, -79.38 466.36 80
8 11/18/2024 19:45:25 -0.00, -75.30 0.07, -74.84 52.64 80
9 11/21/2024 07:48:35 0.00, -75.34 0.06, -75.55 23.94 80
10 11/22/2024 07:27:13 -0.00, -75.36 -0.97, -71.01 495.70 80
